SCP
1 1 1 1 1 0 0 0 0 0 0 0 0 0 0 0 0 0 1 2 2 2 1 2 2 2 1 1 1 1 1 1 1 1 1 1 1 1 1 1 1 1 1 1 1 1 1 1 1
1 1 1 1 1 0 0 0 0 0 0 0 0 0 0 0 1 1 1 2 2 2 1 1 2 2 2 1 1 1 1 1 1 1 1 1 1 1 1 1 1 1 1 1 1 1 1 1 1
2 2 2 1 1 1 1 1 1 0 0 0 0 0 0 0 1 1 2 2 2 2 1 1 2 2 2 2 1 1 1 1 1 1 1 1 1 1 1 1 1 1 1 1 1 1 1 1 1
4 3 2 1 1 1 1 1 1 1 0 0 0 0 0 0 1 2 2 2 2 1 1 2 3 3 3 2 1 1 1 1 1 1 1 1 1 1 1 1 1 1 1 1 1 1 1 1 1
4 3 2 1 1 1 1 1 1 0 0 0 0 0 0 1 2 3 3 2 1 1 1 2 3 3 3 3 2 1 1 1 1 1 1 1 1 1 1 1 1 1 1 1 1 1 1 1 1
3 3 2 1 1 1 1 1 1 1 0 0 0 0 0 1 2 3 3 2 2 1 2 3 3 3 3 3 2 1 1 1 1 1 1 1 1 1 1 1 1 1 1 1 1 1 1 1 1
2 2 1 1 0 1 1 1 1 1 1 1 1 0 1 1 2 2 2 2 2 2 2 3 3 3 3 3 2 2 1 1 1 1 1 1 1 1 1 1 1 1 1 1 1 1 1 1 1
2 2 1 1 0 1 1 1 1 1 1 0 0 0 1 1 1 2 2 2 2 2 3 3 3 3 3 3 2 2 1 1 1 1 1 1 1 1 1 1 1 1 1 1 1 1 1 1 1
2 1 1 0 0 1 1 1 1 1 1 1 1 1 1 1 2 2 2 2 2 2 2 3 3 3 2 2 2 2 1 1 1 1 1 1 1 1 1 1 1 1 1 1 1 1 1 1 1
1 1 1 0 1 1 1 1 1 1 1 1 1 1 1 2 2 2 2 2 2 2 2 2 3 3 2 2 2 1 1 1 1 0 0 0 0 0 0 1 1 1 1 1 1 1 1 1 1
1 1 0 0 1 1 1 1 1 1 1 1 2 2 2 2 2 2 2 2 2 1 1 1 2 2 2 2 1 1 1 1 0 0 0 0 0 0 0 0 0 0 1 1 1 1 1 1 1
1 0 0 0 1 1 1 1 1 1 1 1 2 3 3 3 2 2 2 2 2 1 1 1 1 1 1 1 1 1 1 1 0 0 0 0 0 0 0 0 0 0 0 1 1 1 1 1 1
0 0 0 0 1 1 1 1 1 1 1 2 3 3 3 3 2 2 2 2 1 1 1 1 1 1 1 1 1 1 1 1 1 1 1 0 0 0 0 1 1 1 1 1 1 1 1 1 0
0 0 0 0 1 1 1 1 1 2 2 3 4 5 4 3 3 2 2 2 1 1 1 1 1 1 1 2 2 2 2 1 1 1 1 1 1 0 1 1 1 1 1 1 1 0 0 0 0
0 0 0 0 1 1 1 1 2 2 3 5 6 6 5 4 3 2 2 1 1 1 1 1 1 1 1 1 2 2 2 2 1 1 1 1 1 1 1 1 1 1 1 1 1 0 0 0 0
0 0 0 0 0 1 1 1 2 3 5 8 8 6 4 3 2 2 2 1 1 1 1 1 1 1 1 1 1 1 2 2 2 2 2 2 1 1 1 1 1 1 1 0 0 0 0 0 0
0 0 0 0 1 1 1 1 2 3 6 9 8 5 3 2 2 2 1 1 1 1 1 1 1 1 1 1 1 1 1 2 3 3 4 3 2 2 1 1 1 1 1 0 0 0 0 0 0
0 0 1 1 1 0 1 1 2 3 5 7 7 4 3 3 3 2 2 2 1 1 1 1 1 1 1 1 1 1 1 1 2 4 5 5 3 2 1 1 1 1 1 0 0 0 0 0 0
0 1 1 1 1 0 1 1 2 2 3 4 4 4 4 3 3 3 3 3 2 1 1 1 1 1 1 1 1 1 1 1 2 3 5 5 3 2 1 1 1 1 0 0 0 0 0 0 0
0 1 1 1 0 0 1 1 1 2 2 2 3 3 4 4 3 3 4 4 2 2 1 1 1 1 1 1 1 1 1 1 1 3 4 3 2 1 1 1 1 1 1 0 0 0 0 0 0
0 0 1 1 0 0 0 1 1 2 2 2 2 3 4 4 4 3 4 4 3 2 2 1 1 1 1 1 1 1 1 1 1 2 2 2 1 1 1 1 1 1 1 0 0 0 0 1 1
0 0 0 0 0 0 0 1 1 2 2 3 3 4 4 4 4 4 5 5 4 3 2 2 1 1 1 1 1 1 1 1 1 1 1 1 1 1 1 1 1 1 1 1 0 0 1 1 1
0 0 0 0 0 0 0 0 1 2 3 3 3 4 4 4 4 5 6 6 5 4 3 2 2 2 1 1 1 1 1 1 1 1 1 1 1 1 1 1 1 1 1 1 1 1 1 1 1
0 0 0 0 0 0 0 0 1 2 2 3 3 3 4 4 5 6 7 7 6 5 4 4 3 3 2 2 1 1 1 1 1 1 1 1 1 1 1 1 1 1 1 1 1 1 1 1 1
0 0 0 0 0 0 0 0 1 1 2 2 2 3 4 4 5 6 7 8 9 9 7 5 5 3 2 2 2 1 1 1 1 1 1 1 1 1 2 2 1 2 2 2 1 1 1 1 1
0 0 0 0 0 0 0 0 1 1 2 2 3 3 4 4 5 6 8 10 12 11 8 6 6 4 3 3 2 2 1 1 1 1 1 1 1 1 2 1 2 2 2 2 2 2 1 1 1
0 0 0 0 0 0 0 0 1 2 2 3 4 4 4 5 6 8 10 12 13 10 7 6 6 5 4 3 2 2 1 1 1 1 1 1 1 1 1 1 1 2 2 2 2 2 1 1 1
0 0 0 0 0 0 0 0 1 2 4 5 5 5 5 6 8 9 11 12 11 8 6 6 7 6 5 4 3 2 2 1 1 1 1 2 2 1 2 2 1 2 2 3 3 2 2 2 1
0 0 0 0 0 0 0 0 1 2 4 5 5 6 6 7 9 10 10 10 8 5 4 5 7 7 5 4 3 3 2 2 2 2 2 2 2 2 2 2 2 2 3 3 3 3 3 2 2
0 0 0 0 0 0 0 0 1 2 4 5 6 6 7 8 9 9 9 7 5 4 4 4 6 6 6 5 4 3 2 2 2 2 2 2 2 2 2 2 2 2 3 4 4 4 3 3 2
Wind_Speed
9 6 3 1 1 3 3 3 6 6 6 7 10 10 9 7 5 6 3 8 10 10 8 12 15 15 15 15 15 16 17 17 17 17 17 17 17 17 17 16 15 15 14 14 13 13 12 12 12
6 5 2 1 3 4 3 4 7 7 8 10 10 11 9 8 7 9 6 8 11 10 8 10 15 15 15 15 15 16 17 17 16 16 16 17 16 16 16 15 14 14 13 13 12 12 12 11 10
5 4 0 2 2 3 3 4 7 8 8 7 6 7 6 6 7 6 7 11 10 9 7 11 16 16 15 15 14 15 16 16 16 16 16 16 16 15 15 14 14 13 13 12 11 11 10 10 9
2 1 1 2 1 3 5 5 9 9 7 8 8 6 5 5 5 9 12 12 11 8 8 11 16 16 15 15 14 15 15 16 16 15 15 15 15 14 14 14 13 12 12 11 10 10 9 9 8
1 2 2 1 2 3 4 6 9 8 5 9 10 7 5 5 12 14 12 11 11 9 7 9 16 15 15 15 15 15 15 15 15 15 14 14 14 13 13 13 13 12 11 10 9 9 8 7 7
1 1 2 1 4 4 4 6 9 12 11 10 10 7 3 6 12 11 11 10 10 10 7 8 15 16 15 15 14 14 15 15 15 15 14 14 13 13 13 13 12 11 10 9 8 8 7 6 5
1 1 1 1 3 5 5 5 8 9 9 7 7 6 4 5 9 10 10 9 9 9 8 6 8 11 14 14 14 14 14 14 14 14 14 13 13 13 12 12 11 11 10 9 8 7 6 5 5
3 1 1 1 4 4 4 5 7 9 8 8 6 7 6 7 10 11 10 8 8 7 6 6 6 6 6 8 13 13 13 13 12 13 13 13 12 12 12 10 10 10 9 9 8 7 7 6 5
2 2 1 2 5 4 5 7 5 6 9 5 5 7 11 13 13 12 10 7 7 7 5 5 6 5 5 5 9 10 11 11 10 9 12 10 4 5 6 8 10 10 9 9 8 8 7 6 5
4 2 4 4 5 7 7 8 6 6 9 7 9 11 14 13 13 12 11 9 8 8 6 5 6 5 5 6 5 3 4 5 4 4 5 3 3 3 5 8 10 10 9 9 8 8 6 4 2
5 5 3 3 5 7 8 6 4 9 6 8 13 14 14 13 12 11 9 9 9 8 7 6 5 5 5 4 4 2 2 3 3 4 4 3 3 2 3 2 4 5 6 4 4 4 2 3 2
2 3 2 3 4 6 6 6 6 6 8 12 14 14 13 12 10 10 10 9 8 7 7 6 6 5 5 4 3 3 3 2 3 3 4 3 2 2 3 2 2 2 2 2 2 2 2 3 3
1 1 1 2 4 5 8 8 8 8 12 14 14 14 13 12 10 8 9 8 7 7 6 6 5 5 5 4 4 4 3 3 4 3 4 4 3 3 3 3 2 2 2 3 2 2 2 2 2
2 1 1 2 3 4 9 7 6 8 14 15 13 11 11 11 10 9 9 8 7 6 6 5 5 5 5 4 4 4 4 3 3 3 4 5 4 3 3 3 2 2 2 2 2 3 2 2 2
2 4 3 0 2 3 8 6 6 11 13 14 12 11 11 10 10 10 10 9 8 7 5 5 5 5 5 4 4 4 3 3 3 3 4 5 4 4 4 3 2 2 2 2 2 2 1 1 1
5 3 2 3 2 2 7 5 6 10 13 12 12 11 9 8 9 9 9 8 7 7 6 5 5 5 4 3 3 3 3 3 3 3 4 5 5 4 4 3 2 2 2 2 2 1 1 1 1
3 1 2 4 1 3 5 5 7 9 12 11 10 10 9 8 7 7 9 9 8 7 6 5 4 4 4 3 3 3 3 3 3 3 3 4 4 4 4 3 3 2 2 2 2 2 2 1 1
3 2 2 3 2 4 5 5 8 9 12 11 11 10 10 9 8 9 9 9 8 6 5 5 4 3 3 2 2 1 2 2 2 3 3 4 4 4 4 3 3 3 2 2 2 2 2 2 2
3 2 3 4 2 3 5 6 9 9 10 11 10 10 10 9 8 9 9 9 8 6 5 4 4 3 2 2 1 2 2 2 2 3 4 5 5 4 4 3 3 3 3 4 3 2 2 1 1
3 2 3 4 3 3 4 5 7 9 12 13 13 12 12 10 9 9 8 8 8 7 6 5 4 4 3 2 2 2 2 2 2 2 3 4 5 5 4 4 4 3 3 3 3 2 2 2 1
4 4 4 3 2 3 4 1 3 5 6 7 10 11 12 13 13 11 10 9 9 8 7 6 5 4 3 2 2 1 1 1 0 1 2 3 4 5 4 5 4 4 4 3 4 4 4 3 2
5 7 4 4 3 2 3 2 5 4 4 7 8 9 11 11 11 11 11 10 10 9 8 6 5 4 4 3 3 3 2 2 2 2 2 3 4 4 5 5 4 4 3 4 4 4 3 3 2
7 4 3 2 2 2 2 2 6 2 4 7 9 10 11 12 12 12 12 12 11 10 8 6 5 4 3 3 4 3 2 1 1 1 1 1 2 3 4 4 4 4 3 4 4 3 3 3 3
2 3 5 5 5 2 4 3 5 5 9 8 8 9 10 11 11 10 9 9 8 8 7 7 6 5 4 4 3 3 3 2 2 1 1 1 1 2 2 3 3 4 4 4 4 4 4 4 4
3 5 5 6 5 4 3 2 7 7 6 8 9 8 9 9 9 9 9 9 9 9 9 8 7 6 5 4 4 3 3 3 3 2 2 1 1 1 2 2 2 3 3 4 4 4 4 4 4
3 9 8 5 4 4 3 3 7 4 4 6 7 7 8 8 8 9 10 11 11 10 10 8 8 6 5 4 3 3 2 2 2 2 2 2 2 2 2 2 2 2 3 3 3 3 4 3 4
3 3 8 8 2 0 3 3 4 2 3 5 6 7 8 9 9 8 8 8 9 9 10 10 8 6 5 4 4 3 2 2 2 2 2 2 2 2 2 2 2 2 2 2 3 2 3 3 3
6 6 6 5 4 2 3 3 4 4 4 5 6 7 7 7 7 7 7 7 7 8 8 8 7 7 6 6 5 4 3 3 2 2 2 2 2 2 2 2 2 2 2 2 2 2 2 2 3
0 2 4 4 6 6 3 7 7 9 9 9 7 7 8 8 8 7 6 6 6 6 7 7 7 6 6 6 4 4 3 3 3 3 3 2 2 2 3 3 3 2 3 3 2 3 2 2 3
4 5 7 5 3 5 4 8 4 7 8 8 7 6 7 7 6 6 5 5 6 6 6 6 7 7 6 5 5 4 3 3 3 3 3 3 3 3 3 3 2 3 3 3 3 3 3 3 3
Wind_Direction
173 166 168 211 33 45 60 75 95 78 62 64 76 81 79 67 91 122 144 137 130 135 136 129 126 127 125 123 122 122 122 121 121 121 121 123 125 125 126 128 128 128 127 126 125 124 122 120 120
165 167 193 353 58 60 47 87 92 97 119 108 84 82 77 70 84 112 125 135 132 136 137 134 131 129 128 127 126 125 125 125 124 123 124 125 127 129 130 131 130 130 129 129 129 127 126 124 122
177 191 240 30 91 127 114 97 107 103 104 98 85 63 67 95 106 120 139 137 131 134 138 139 134 132 132 131 129 129 130 129 129 128 128 128 129 131 133 133 134 134 133 133 133 131 131 130 128
175 158 15 37 101 143 131 131 120 108 82 77 91 70 55 86 113 128 137 135 131 133 140 143 137 136 135 134 132 132 134 133 132 133 133 132 132 135 137 138 138 137 137 137 136 137 137 137 136
174 98 26 19 91 107 117 127 116 107 93 90 92 92 71 73 110 127 136 136 133 134 140 144 139 138 138 138 137 137 138 137 137 137 138 138 139 141 142 142 142 142 142 142 143 145 145 146 148
104 81 55 73 95 97 101 109 103 100 106 104 101 102 88 114 119 130 133 137 136 138 139 143 144 143 142 142 141 141 142 142 141 141 143 145 146 148 148 148 149 148 149 149 152 155 158 161 161
149 93 260 146 98 103 110 101 99 109 116 113 119 103 118 129 131 131 127 131 133 135 136 136 144 146 146 146 145 145 146 146 146 146 147 150 152 154 156 157 157 156 156 158 164 170 172 177 184
172 97 321 138 111 111 117 92 102 111 106 121 118 126 152 154 132 122 118 123 126 127 133 135 139 142 145 147 148 148 148 149 149 150 154 156 159 162 164 166 167 168 169 171 177 182 188 197 207
132 79 272 187 136 139 126 100 90 86 103 105 91 120 141 136 127 121 119 118 125 128 132 137 138 141 143 146 152 151 152 154 154 155 159 160 159 164 170 175 178 181 183 185 189 194 199 207 220
140 160 220 190 148 141 132 120 123 102 95 89 91 106 125 126 127 128 131 136 139 142 144 146 148 148 146 150 141 139 146 149 148 148 158 155 160 177 178 188 190 191 194 197 201 205 212 214 221
165 195 216 139 144 131 125 126 110 120 114 134 132 134 133 128 129 131 134 141 148 149 147 151 152 151 148 139 140 143 141 141 150 156 160 157 160 179 183 184 195 198 202 204 211 212 213 211 216
167 223 154 144 137 121 123 129 111 118 138 141 136 136 133 131 131 135 137 143 144 145 151 152 152 153 152 145 147 149 149 154 167 175 168 161 164 175 177 185 189 190 199 203 212 204 211 218 216
154 135 113 148 121 120 115 118 114 113 124 129 129 130 132 131 129 132 136 136 139 147 152 157 157 156 157 153 159 155 163 172 175 172 173 172 170 175 177 184 183 187 194 194 193 193 196 205 218
265 38 72 101 103 112 113 114 104 128 131 130 132 134 137 139 140 134 133 135 139 142 147 148 144 149 151 155 159 163 171 175 171 169 178 177 173 174 173 176 180 187 194 189 187 191 189 202 212
359 27 359 195 98 137 110 81 121 143 136 134 137 139 142 147 147 148 149 149 151 147 146 152 148 139 142 152 162 161 172 170 170 177 179 174 174 170 167 172 183 192 188 183 174 187 171 195 210
5 28 350 280 136 193 112 131 156 149 138 139 143 144 144 147 149 152 149 148 147 142 143 156 153 141 143 150 160 158 168 168 176 181 180 182 180 174 166 169 186 192 179 172 174 181 165 209 216
3 321 274 293 253 173 118 147 166 156 142 145 148 150 149 147 147 152 153 151 150 150 150 152 145 150 153 150 152 161 163 173 175 177 182 185 182 181 176 181 189 187 181 185 192 173 174 192 222
252 256 280 279 286 122 114 145 161 161 151 156 156 155 154 160 163 158 156 154 151 152 152 155 151 155 151 137 127 134 147 179 176 182 189 186 186 183 178 184 193 184 179 193 193 181 182 193 207
219 239 274 272 249 122 130 148 168 168 164 165 165 166 163 166 161 154 154 155 151 150 153 162 158 163 150 148 156 158 184 196 191 199 194 191 191 188 183 189 193 190 188 197 192 181 189 212 180
217 239 267 283 259 133 150 170 187 182 181 178 172 173 169 161 155 161 160 157 159 162 164 168 170 168 170 178 181 182 182 193 194 199 192 196 191 190 192 190 193 190 188 197 197 182 191 228 191
253 221 220 213 324 46 103 26 215 209 187 179 176 174 171 167 166 168 167 168 167 170 171 171 175 172 175 169 141 128 89 43 150 191 200 208 198 196 197 194 190 192 190 196 203 195 193 214 234
250 240 206 173 119 275 128 191 260 215 197 188 181 178 179 173 168 169 170 173 173 176 175 172 172 172 174 164 147 149 166 186 202 193 203 215 204 202 203 197 192 193 188 189 202 198 191 188 226
231 228 175 162 116 15 9 128 272 193 200 206 192 185 183 177 173 172 176 176 174 174 174 171 169 169 172 170 163 158 162 177 167 145 171 222 220 213 207 193 189 192 193 194 199 196 192 190 203
220 44 30 47 67 12 260 163 262 217 208 202 192 184 181 176 172 172 173 166 168 170 169 167 167 173 175 172 170 170 168 158 142 157 182 229 241 224 211 196 195 199 199 198 199 200 203 209 213
83 82 29 4 13 259 274 144 245 233 198 178 170 172 167 167 169 169 167 169 171 172 172 171 170 177 179 175 180 182 182 168 165 181 189 200 214 214 230 215 200 201 204 200 197 203 211 215 218
190 139 155 190 217 269 319 226 257 248 172 155 148 151 150 155 167 175 178 178 177 175 172 170 172 176 176 177 186 181 179 175 182 186 189 197 212 218 223 213 211 213 206 202 200 210 225 222 225
174 181 170 146 165 188 276 279 323 30 116 139 140 140 152 156 163 165 173 177 175 174 172 172 168 171 176 180 177 182 185 183 188 196 200 216 230 226 226 218 222 224 216 208 198 213 231 228 228
167 159 97 113 150 233 277 254 226 212 183 158 149 149 152 147 152 162 167 172 176 173 171 167 166 172 177 184 188 188 198 196 190 184 208 226 240 246 250 241 225 222 217 214 200 219 232 224 238
154 110 116 127 152 159 220 260 220 194 180 166 164 156 152 151 155 161 167 172 169 162 164 170 173 171 179 186 188 188 195 198 194 202 221 227 233 233 239 239 227 224 226 220 214 225 225 228 246
169 174 146 151 225 169 170 259 256 179 165 154 153 151 149 148 149 151 155 152 154 160 163 172 179 181 187 187 185 194 196 194 199 218 231 231 231 229 230 234 231 235 236 227 216 227 231 227 239